GW6651 Weather Reports


time (UTC)temp
C
wind
direction
speed
KPH
gust
KPH
rain 1hr
cm
rain 24hr
cm
rain mn
cm
humidity
%
barometer
mb
20260506114009 17 204 3.2 8.0 0.15 0.15 0.15 83 1011.8
20260506113504 17 166 3.2 8.0 0.15 0.15 0.15 83 1012.1
20260506113010 17 231 1.6 11.3 0.15 0.15 0.15 83 1012.4
20260506112505 17 200 4.8 11.3 0.15 0.15 0.15 82 1012.4
20260506112004 17 230 4.8 9.7 0.15 0.15 0.15 81 1012.2
20260506111512 18 223 4.8 12.9 0.15 0.15 0.15 81 1012.0
20260506111008 18 191 4.8 12.9 0.13 0.13 0.13 79 1012.0
20260506110509 18 231 4.8 11.3 0.05 0.05 0.05 76 1012.0
20260506110014 19 174 4.8 14.5 0.00 0.00 0.00 74 1012.0
20260506104526 19 184 4.8 11.3 0.00 0.00 0.00 73 1011.7
20260506104003 19 207 6.4 12.9 0.00 0.00 0.00 73 1011.8
20260506103504 19 168 4.8 14.5 0.00 0.00 0.00 72 1011.5
20260506103008 19 231 4.8 14.5 0.00 0.00 0.00 72 1011.3
20260506102506 19 194 8.0 16.1 0.00 0.00 0.00 72 1011.6
20260506102005 19 204 6.4 16.1 0.00 0.00 0.00 72 1011.4
20260506101511 19 179 8.0 16.1 0.00 0.00 0.00 71 1011.3
20260506101004 19 157 8.0 22.5 0.00 0.00 0.00 71 1011.2
20260506100505 19 224 9.7 22.5 0.00 0.00 0.00 70 1010.9
20260506095507 19 165 9.7 20.9 0.00 0.00 0.00 70 1011.0
20260506095010 19 224 8.0 16.1 0.00 0.00 0.00 70 1011.3
20260506094525 19 214 8.0 16.1 0.00 0.00 0.00 69 1011.4
20260506094008 19 187 8.0 17.7 0.00 0.00 0.00 69 1011.4
20260506093509 19 242 8.0 17.7 0.00 0.00 0.00 69 1011.4
20260506093020 19 226 8.0 14.5 0.00 0.00 0.00 69 1011.4
20260506092504 20 200 8.0 16.1 0.00 0.00 0.00 68 1011.4
20260506092004 20 189 9.7 17.7 0.00 0.00 0.00 68 1011.3
20260506091512 20 180 8.0 17.7 0.00 0.00 0.00 68 1011.2
20260506091010 20 203 6.4 12.9 0.00 0.00 0.00 68 1011.4
20260506090508 20 231 8.0 12.9 0.00 0.00 0.00 68 1011.4
20260506090015 20 226 8.0 12.9 0.00 0.00 0.00 67 1011.4
20260506085511 20 230 4.8 14.5 0.00 0.00 0.00 67 1011.2
20260506085004 20 258 4.8 17.7 0.00 0.00 0.00 67 1011.1
20260506084523 20 195 9.7 17.7 0.00 0.00 0.00 66 1010.8
20260506084008 20 175 6.4 19.3 0.00 0.00 0.00 66 1010.9
20260506083508 20 179 6.4 19.3 0.00 0.00 0.00 65 1010.8
20260506083028 20 213 8.0 14.5 0.00 0.00 0.00 65 1010.5
20260506082004 20 172 6.4 14.5 0.00 0.00 0.00 64 1010.7
20260506081515 20 176 8.0 16.1 0.00 0.00 0.00 64 1010.5
20260506081003 20 231 6.4 22.5 0.00 0.00 0.00 63 1010.6
20260506080504 20 182 8.0 22.5 0.00 0.00 0.00 63 1010.7
20260506073507 20 198 9.7 22.5 0.00 0.00 0.00 61 1010.8
20260506073021 20 197 9.7 22.5 0.00 0.00 0.00 60 1010.8
20260506071007 20 165 8.0 24.1 0.00 0.00 0.00 58 1011.0
20260506070504 20 231 9.7 24.1 0.00 0.00 0.00 57 1011.0
20260506062510 21 150 11.3 19.3 0.00 0.00 0.00 54 1011.2
20260506062013 21 180 8.0 16.1 0.00 0.00 0.00 53 1011.5
20260506061521 21 203 6.4 17.7 0.00 0.00 0.00 52 1011.6
20260506061010 21 150 9.7 17.7 0.00 0.00 0.00 52 1011.6
20260506051004 21 186 9.7 19.3 0.00 0.00 0.00 48 1012.1
20260506050507 21 203 9.7 17.7 0.00 0.00 0.00 49 1012.1
20260506045004 21 153 6.4 16.1 0.00 0.00 0.00 49 1012.1
20260506044516 21 156 8.0 16.1 0.00 0.00 0.00 48 1012.0
20260506044004 21 220 6.4 20.9 0.00 0.00 0.00 49 1012.0
20260506043508 21 209 9.7 20.9 0.00 0.00 0.00 49 1011.9
20260506043021 21 173 9.7 17.7 0.00 0.00 0.00 49 1012.0
20260506042508 21 207 8.0 17.7 0.00 0.00 0.00 49 1012.1
20260506042013 21 212 6.4 17.7 0.00 0.00 0.00 49 1012.2
20260506041522 21 213 9.7 16.1 0.00 0.00 0.00 49 1012.2
20260506041013 21 147 8.0 16.1 0.00 0.00 0.00 49 1012.2
20260506040508 21 195 6.4 14.5 0.00 0.00 0.00 50 1012.2
20260506040008 21 212 9.7 14.5 0.00 0.00 0.00 50 1012.1
20260506035504 21 156 6.4 14.5 0.00 0.00 0.00 50 1012.0
20260506035003 21 219 6.4 14.5 0.00 0.00 0.00 50 1012.1
20260506034511 21 175 8.0 16.1 0.00 0.00 0.00 50 1012.2
20260506034005 21 211 6.4 16.1 0.00 0.00 0.00 50 1012.3
20260506033507 21 162 4.8 16.1 0.00 0.00 0.00 50 1012.4
20260506033025 21 201 9.7 12.9 0.00 0.00 0.00 50 1012.3
20260506032506 21 237 6.4 12.9 0.00 0.00 0.00 50 1012.4
20260506032009 21 235 4.8 9.7 0.00 0.00 0.00 50 1012.5
20260506031532 21 210 3.2 9.7 0.00 0.00 0.00 49 1012.5
20260506031009 21 203 4.8 11.3 0.00 0.00 0.00 49 1012.7
20260506030509 21 245 4.8 11.3 0.00 0.00 0.00 48 1012.7
20260506030029 21 244 6.4 14.5 0.00 0.00 0.00 48 1012.7
20260506025510 21 258 8.0 14.5 0.00 0.00 0.00 48 1012.7
20260506025003 21 175 8.0 20.9 0.00 0.00 0.00 48 1012.7
20260506024509 21 231 8.0 20.9 0.00 0.00 0.00 47 1012.4
20260506024004 21 184 11.3 20.9 0.00 0.00 0.00 47 1012.4
20260506023505 21 167 8.0 16.1 0.00 0.00 0.00 47 1012.3
20260506023014 21 152 8.0 14.5 0.00 0.00 0.00 47 1012.3
20260506022505 21 223 6.4 17.7 0.00 0.00 0.00 47 1012.1
20260506022006 21 176 8.0 17.7 0.00 0.00 0.00 46 1012.0
20260506021519 21 159 8.0 16.1 0.00 0.00 0.00 47 1012.1
20260506021006 21 191 6.4 14.5 0.00 0.00 0.00 47 1012.0
20260506020506 21 174 4.8 11.3 0.00 0.00 0.00 47 1011.9
20260506020022 21 179 6.4 14.5 0.00 0.00 0.00 48 1011.9
20260506015510 21 197 4.8 16.1 0.00 0.00 0.00 47 1012.0
20260506015010 21 201 8.0 16.1 0.00 0.00 0.00 47 1011.9
20260506014526 21 217 8.0 12.9 0.00 0.00 0.00 47 1011.9
20260506014005 21 219 6.4 17.7 0.00 0.00 0.00 47 1011.6
20260506013505 21 167 4.8 17.7 0.00 0.00 0.00 47 1011.4
20260506013013 21 230 8.0 12.9 0.00 0.00 0.00 47 1011.5
20260506012505 21 231 6.4 12.9 0.00 0.00 0.00 47 1011.6
20260506012005 21 165 4.8 17.7 0.00 0.00 0.00 47 1011.5
20260506011518 21 200 6.4 17.7 0.00 0.00 0.00 47 1011.4
20260506011006 21 236 3.2 11.3 0.00 0.00 0.00 46 1011.3
20260506010511 21 198 8.0 11.3 0.00 0.00 0.00 46 1011.3
20260506010045 21 201 4.8 9.7 0.00 0.00 0.00 46 1011.2
20260506005509 21 207 4.8 9.7 0.00 0.00 0.00 46 1011.2
20260506005006 21 161 4.8 12.9 0.00 0.00 0.00 45 1011.2
20260506004524 21 160 3.2 12.9 0.00 0.00 0.00 45 1011.3
20260506004010 21 225 6.4 12.9 0.00 0.00 0.00 45 1011.4
20260506003510 21 164 3.2 12.9 0.00 0.00 0.00 45 1011.5
20260506003012 21 228 6.4 14.5 0.00 0.00 0.00 44 1011.5
20260506002504 21 165 6.4 14.5 0.00 0.00 0.00 45 1011.4
20260506002005 21 159 4.8 12.9 0.00 0.00 0.00 45 1011.3
20260506001516 21 218 4.8 12.9 0.00 0.00 0.00 45 1011.3
20260506001006 21 231 4.8 12.9 0.00 0.00 0.00 44 1011.5
20260506000508 22 163 4.8 12.9 0.00 0.00 0.00 44 1011.6
20260506000020 22 207 6.4 17.7 0.00 0.00 0.00 44 1011.8
20260505235508 22 196 3.2 17.7 0.00 0.00 0.00 44 1011.9
20260505235011 22 219 4.8 14.5 0.00 0.00 0.00 44 1011.8
20260505234522 21 174 6.4 14.5 0.00 0.00 0.00 44 1011.6
20260505234009 22 160 4.8 11.3 0.00 0.00 0.00 45 1011.5
20260505233507 22 180 4.8 11.3 0.00 0.00 0.00 45 1011.5
20260505233025 21 167 6.4 16.1 0.00 0.00 0.00 45 1011.5
20260505232511 21 223 4.8 16.1 0.00 0.00 0.00 45 1011.6
20260505232005 21 200 4.8 9.7 0.00 0.00 0.00 46 1011.5
20260505231518 21 186 4.8 9.7 0.00 0.00 0.00 46 1011.5
20260505231005 21 190 4.8 14.5 0.00 0.00 0.00 46 1011.4
20260505230506 22 165 6.4 14.5 0.00 0.00 0.00 44 1011.5
20260505230003 22 226 4.8 14.5 0.00 0.00 0.00 44 1011.4
20260505225504 22 160 6.4 14.5 0.00 0.00 0.00 44 1011.4
20260505225003 22 222 8.0 14.5 0.00 0.00 0.00 43 1011.5
20260505224505 22 198 6.4 16.1 0.00 0.00 0.00 43 1011.5
20260505224003 22 217 8.0 16.1 0.00 0.00 0.00 43 1011.5
20260505223503 22 212 8.0 12.9 0.00 0.00 0.00 43 1011.6
20260505223006 22 200 6.4 11.3 0.00 0.00 0.00 43 1011.7
20260505222502 22 181 6.4 11.3 0.00 0.00 0.00 43 1011.8
20260505222007 22 156 6.4 16.1 0.00 0.00 0.00 43 1011.7
20260505221513 22 200 9.7 19.3 0.00 0.00 0.00 42 1011.7
20260505221004 22 214 4.8 19.3 0.00 0.00 0.00 42 1011.6
20260505220504 22 152 8.0 19.3 0.00 0.00 0.00 42 1011.7
20260505220022 22 162 6.4 19.3 0.00 0.00 0.00 42 1011.7
20260505215507 22 154 6.4 19.3 0.00 0.00 0.00 42 1012.0
20260505215003 22 183 8.0 19.3 0.00 0.00 0.00 43 1011.9
20260505214503 23 193 9.7 17.7 0.00 0.00 0.00 43 1012.1
20260505214003 23 223 6.4 17.7 0.00 0.00 0.00 42 1012.1
20260505213502 23 167 6.4 17.7 0.00 0.00 0.00 42 1012.2
20260505213018 23 192 11.3 17.7 0.00 0.00 0.00 42 1012.2
20260505212506 23 167 4.8 11.3 0.00 0.00 0.00 41 1012.2
20260505212004 23 180 6.4 11.3 0.00 0.00 0.00 40 1012.3
20260505211508 23 243 6.4 16.1 0.00 0.00 0.00 40 1012.1
20260505211003 23 174 4.8 17.7 0.00 0.00 0.00 40 1012.1
20260505210507 23 202 8.0 17.7 0.00 0.00 0.00 39 1012.2
20260505210017 23 231 8.0 20.9 0.00 0.00 0.00 36 1012.2
20260505205504 24 183 11.3 20.9 0.00 0.00 0.00 35 1012.2
20260505205008 24 185 9.7 20.9 0.00 0.00 0.00 36 1012.2
20260505204521 24 158 9.7 24.1 0.00 0.00 0.00 36 1012.2
20260505204006 24 162 14.5 24.1 0.00 0.00 0.00 35 1012.3
20260505203503 24 169 11.3 19.3 0.00 0.00 0.00 38 1012.4
20260505203005 24 181 11.3 19.3 0.00 0.00 0.00 40 1012.3
20260505202503 24 160 9.7 25.7 0.00 0.00 0.00 43 1012.5
20260505202006 24 177 11.3 25.7 0.00 0.00 0.00 44 1012.5
20260505201510 24 197 8.0 19.3 0.00 0.00 0.00 45 1012.5
20260505201004 23 194 4.8 25.7 0.00 0.00 0.00 45 1012.7
20260505200505 24 174 11.3 25.7 0.00 0.00 0.00 44 1012.7
20260505200014 24 195 8.0 20.9 0.00 0.00 0.00 46 1012.6
20260505195505 23 173 12.9 20.9 0.00 0.00 0.00 44 1012.8
20260505195007 23 192 9.7 27.4 0.00 0.00 0.00 44 1012.8
20260505194524 23 170 9.7 27.4 0.00 0.00 0.00 43 1012.8
20260505194008 24 219 12.9 22.5 0.00 0.00 0.00 44 1012.9
20260505193509 24 160 9.7 30.6 0.00 0.00 0.00 44 1012.9
20260505193028 24 198 9.7 30.6 0.00 0.00 0.00 46 1012.9
20260505192505 24 200 12.9 24.1 0.00 0.00 0.00 42 1012.9
20260505192005 24 231 6.4 20.9 0.00 0.00 0.00 44 1012.9
20260505191520 24 172 12.9 20.9 0.00 0.00 0.00 41 1013.0
20260505191009 24 195 11.3 20.9 0.00 0.00 0.00 43 1013.0
20260505190507 23 168 9.7 20.9 0.00 0.00 0.00 48 1013.1
20260505190009 23 224 9.7 19.3 0.00 0.00 0.00 44 1013.2
20260505185510 23 192 8.0 17.7 0.00 0.00 0.00 44 1013.4
20260505185005 23 151 4.8 16.1 0.00 0.00 0.00 43 1013.3
20260505184514 23 257 6.4 17.7 0.00 0.00 0.00 45 1013.8
20260505184007 23 252 11.3 25.7 0.00 0.00 0.00 46 1014.0
20260505183508 23 179 12.9 25.7 0.00 0.00 0.00 43 1014.1
20260505183024 23 165 4.8 22.5 0.00 0.00 0.00 47 1014.2
20260505182507 23 201 9.7 22.5 0.00 0.00 0.00 46 1014.3
20260505182004 23 183 6.4 27.4 0.00 0.00 0.00 46 1014.3
20260505181527 23 173 14.5 27.4 0.00 0.00 0.00 45 1014.3
20260505181004 23 163 8.0 19.3 0.00 0.00 0.00 45 1014.3
20260505180503 23 160 9.7 19.3 0.00 0.00 0.00 46 1014.5
20260505180016 23 203 9.7 19.3 0.00 0.00 0.00 48 1014.6
20260505175504 23 217 3.2 19.3 0.00 0.00 0.00 49 1014.3
20260505175007 23 148 9.7 19.3 0.00 0.00 0.00 45 1014.5
20260505174517 23 208 6.4 20.9 0.00 0.00 0.00 47 1014.5
20260505174007 23 149 6.4 24.1 0.00 0.00 0.00 46 1014.8
20260505173507 23 188 12.9 24.1 0.00 0.00 0.00 46 1014.9
20260505173036 22 169 6.4 17.7 0.00 0.00 0.00 46 1014.8
20260505172506 22 237 9.7 17.7 0.00 0.00 0.00 47 1014.9
20260505172007 22 233 11.3 20.9 0.00 0.00 0.00 46 1015.0
20260505171538 22 148 8.0 20.9 0.00 0.00 0.00 48 1015.1
20260505171004 22 161 3.2 17.7 0.00 0.00 0.00 49 1015.1
20260505170504 22 181 8.0 17.7 0.00 0.00 0.00 48 1015.3
20260505170027 22 252 8.0 14.5 0.00 0.00 0.00 48 1015.4
20260505165506 22 210 6.4 14.5 0.00 0.00 0.00 49 1015.5
20260505165004 22 231 3.2 12.9 0.00 0.00 0.00 51 1015.6
20260505164509 22 223 6.4 16.1 0.00 0.00 0.00 51 1015.5
20260505164004 21 210 6.4 16.1 0.00 0.00 0.00 52 1015.5
20260505163504 21 231 8.0 16.1 0.00 0.00 0.00 53 1015.4
20260505163016 21 231 6.4 19.3 0.00 0.00 0.00 53 1015.2
20260505162505 21 181 4.8 19.3 0.00 0.00 0.00 53 1015.1
20260505162011 21 151 4.8 14.5 0.00 0.00 0.00 55 1015.3
20260505161522 21 150 9.7 14.5 0.00 0.00 0.00 54 1015.5
20260505161007 21 214 6.4 14.5 0.00 0.00 0.00 57 1015.5
20260505160515 21 204 4.8 16.1 0.00 0.00 0.00 56 1015.6
20260505153014 20 177 4.8 12.9 0.00 0.00 0.00 58 1015.7
20260505152508 20 240 6.4 12.9 0.00 0.00 0.00 57 1015.7
20260505152008 20 184 4.8 12.9 0.00 0.00 0.00 57 1015.6
20260505151529 19 161 6.4 12.9 0.00 0.00 0.00 59 1015.6
20260505151008 20 171 6.4 14.5 0.00 0.00 0.00 59 1015.5
20260505150510 19 155 6.4 16.1 0.00 0.00 0.00 58 1015.6
20260505140508 17 222 4.8 14.5 0.00 0.00 0.00 62 1015.6
20260505125008 16 216 3.2 11.3 0.00 0.00 0.00 61 1015.2
20260505124526 16 206 3.2 8.0 0.00 0.00 0.00 61 1015.2
20260505124009 16 191 4.8 9.7 0.00 0.00 0.00 61 1015.0
20260505123507 16 191 4.8 11.3 0.00 0.00 0.00 61 1015.0
20260505123026 15 169 3.2 12.9 0.00 0.00 0.00 62 1014.9
20260505122504 15 214 4.8 12.9 0.00 0.00 0.00 61 1014.8
20260505122008 15 229 3.2 9.7 0.00 0.00 0.00 61 1014.8
20260505121518 15 186 4.8 9.7 0.00 0.00 0.00 61 1014.9
20260505121006 15 191 3.2 12.9 0.00 0.00 0.00 61 1014.9
20260505120504 15 199 3.2 12.9 0.00 0.00 0.00 62 1014.7
20260505120048 15 203 4.8 11.3 0.00 0.00 0.00 62 1014.6
20260505115508 15 195 4.8 8.0 0.00 0.00 0.00 63 1014.6
20260505115006 15 221 3.2 12.9 0.00 0.00 0.00 63 1014.6
20260505114524 15 208 4.8 12.9 0.00 0.00 0.00 63 1014.5